GW2299 Weather Reports


time (UTC)temp
C
wind
direction
speed
KPH
gust
KPH
rain 1hr
cm
rain 24hr
cm
rain mn
cm
humidity
%
barometer
mb
20260504020028 10 0 0.0 0.0 0.00 0.00 0.00 86 1020.1
20260504014537 10 0 0.0 0.0 0.00 0.00 0.00 87 1020.1
20260504013029 10 0 0.0 0.0 0.00 0.00 0.00 87 1019.8
20260504011529 10 0 0.0 0.0 0.00 0.00 0.00 84 1019.8
20260504010028 10 0 0.0 0.0 0.00 0.00 0.00 82 1019.8
20260504004528 11 0 0.0 0.0 0.00 0.00 0.00 82 1019.8
20260504003033 11 83 0.0 0.0 0.00 0.00 0.00 83 1019.7
20260504001536 10 0 0.0 0.0 0.00 0.00 0.00 82 1019.8
20260504000031 11 0 0.0 0.0 0.00 0.00 0.00 81 1019.8
20260503234531 11 0 0.0 0.0 0.00 0.00 0.00 81 1019.9
20260503233029 11 0 0.0 0.0 0.00 0.00 0.00 81 1020.0
20260503231530 11 0 0.0 0.0 0.00 0.00 0.00 81 1020.1
20260503230034 11 0 0.0 1.6 0.00 0.00 0.00 79 1020.2
20260503224534 11 0 0.0 0.0 0.00 0.00 0.00 79 1020.3
20260503223030 11 0 0.0 0.0 0.00 0.00 0.00 78 1020.3
20260503221527 11 0 0.0 0.0 0.00 0.00 0.00 78 1020.1
20260503220031 11 0 0.0 0.0 0.00 0.00 0.00 77 1020.1
20260503214529 11 0 0.0 0.0 0.00 0.00 0.00 76 1020.1
20260503213030 12 0 0.0 0.0 0.00 0.00 0.00 76 1020.0
20260503211529 12 0 0.0 1.6 0.00 0.00 0.00 75 1020.0
20260503210033 12 0 0.0 0.0 0.00 0.00 0.00 76 1020.0
20260503204529 12 0 0.0 0.0 0.00 0.00 0.00 75 1020.0
20260503203032 12 0 0.0 1.6 0.00 0.00 0.00 74 1020.0
20260503201528 12 0 0.0 0.0 0.00 0.00 0.00 73 1019.8
20260503200028 13 0 0.0 0.0 0.00 0.00 0.00 71 1019.9
20260503194533 13 0 0.0 1.6 0.00 0.00 0.00 68 1019.9
20260503193032 12 0 0.0 3.2 0.00 0.00 0.00 73 1019.7
20260503191536 13 0 0.0 0.0 0.00 0.00 0.00 72 1019.7
20260503190030 13 0 0.0 0.0 0.00 0.00 0.00 71 1019.6
20260503184530 13 0 0.0 0.0 0.00 0.00 0.00 70 1019.5
20260503183032 14 0 0.0 0.0 0.00 0.00 0.00 68 1019.4
20260503181530 15 0 0.0 1.6 0.00 0.00 0.00 66 1019.2
20260503180042 15 0 0.0 0.0 0.00 0.00 0.00 64 1019.1
20260503174529 16 0 0.0 4.8 0.00 0.00 0.00 64 1019.0
20260503173030 16 290 1.6 9.7 0.00 0.00 0.00 62 1018.9
20260503171531 17 205 1.6 9.7 0.00 0.00 0.00 56 1018.9
20260503081527 16 272 0.0 3.2 0.00 0.00 0.00 56 1021.6
20260503071528 13 0 0.0 0.0 0.00 0.00 0.00 54 1021.7
20260503054535 10 0 0.0 0.0 0.00 0.00 0.00 63 1021.5
20260503053029 10 0 0.0 0.0 0.00 0.00 0.00 67 1021.5
20260503051525 9 0 0.0 0.0 0.00 0.00 0.00 61 1021.4
20260503050032 9 0 0.0 0.0 0.00 0.00 0.00 58 1021.4
20260503044525 10 0 0.0 0.0 0.00 0.00 0.00 56 1021.3
20260503043038 9 0 0.0 0.0 0.00 0.00 0.00 56 1021.1
20260503041528 8 0 0.0 0.0 0.00 0.00 0.00 59 1021.1
20260503040028 9 0 0.0 0.0 0.00 0.00 0.00 57 1021.0
20260503034526 8 0 0.0 0.0 0.00 0.00 0.00 59 1021.0
20260503033033 8 0 0.0 0.0 0.00 0.00 0.00 59 1021.0
20260503031528 8 0 0.0 0.0 0.00 0.00 0.00 60 1021.1
20260503030029 8 0 0.0 0.0 0.00 0.00 0.00 58 1021.3
20260503024529 9 0 0.0 0.0 0.00 0.00 0.00 57 1021.1
20260503023028 9 0 0.0 0.0 0.00 0.00 0.00 58 1021.4
20260503021540 8 0 0.0 0.0 0.00 0.00 0.00 58 1021.5